Columbus, OH

12:14 PM EST on December 04, 2016 (GMT -0500)
Port Columbus International

Weather History for KCMH - March, 2013

Change the Weather History Date:

Sunday, March 24, 2013

  Actual Average Record
Temperature  
Mean Temperature 35 °F 45 °F  
Max Temperature 38 °F 55 °F 84 °F (1910)
Min Temperature 32 °F 35 °F 11 °F (1974)
Degree Days  
Heating Degree Days 30 20  
Month to date heating degree days 682 585  
Since 1 July heating degree days 4540 4580  
Cooling Degree Days 0 0  
Month to date cooling degree days 0 0  
Year to date cooling degree days 0 0  
Moisture  
Dew Point 26 °F    
Average Humidity 62    
Maximum Humidity 75    
Minimum Humidity 48    
Precipitation  
Precipitation 0.28 in 0.10 in 2.14 in (1913)
Month to date precipitation 2.95 2.24  
Year to date precipitation 7.02 7.22  
Snow  
Snow 2.90 in 0.10 in 3.00 in (1912)
Month to date snowfall 10.9 3.7  
Since 1 July snowfall 39.9 25.1  
Snow Depth 0.00 in    
Sea Level Pressure  
Sea Level Pressure 29.65 in    
Wind  
Wind Speed 10 mph (ENE)    
Max Wind Speed 23 mph    
Max Gust Speed 31 mph    
Visibility 7 miles    
Events Fog , Rain , Snow    
T = Trace of Precipitation, MM = Missing Value Source: NWS Daily Summary

Daily Weather History Graph

Daily Weather History Graph

Search for Another Location

Airport or City:

Trip Planner

Search our weather history database for the weather conditions in past years. The results will help you decide how hot, cold, wet, or windy it might be!

Date:

Astronomy

Mar. 24, 2013 Rise Set
Actual Time 7:28 AM EDT 7:47 PM EDT
Civil Twilight 7:00 AM EDT 8:15 PM EDT
Nautical Twilight 6:29 AM EDT 8:46 PM EDT
Astronomical Twilight 5:56 AM EDT 9:19 PM EDT
Moon 5:15 PM EDT (3/24) 5:37 AM EDT (3/24)
Length of Visible Light 13h 14m
Length of Day
12h 19m
Waxing Gibbous, 91% of the Moon is Illuminated
Mar 24
Waxing Gibbous
Mar 27
Full
Apr 3
Last Quarter
Apr 10
New
Apr 18
First Quarter

Hourly Weather History & Observations

Time (EDT) Temp. Windchill Dew Point Humidity Pressure Visibility Wind Dir Wind Speed Gust Speed Precip Events Conditions
12:51 AM 33.1 °F 25.5 °F 24.1 °F 70% 29.94 in 10.0 mi NE 9.2 mph - N/A   Scattered Clouds
1:51 AM 33.1 °F 24.9 °F 23.0 °F 66% 29.94 in 10.0 mi NE 10.4 mph - N/A   Mostly Cloudy
2:51 AM 33.1 °F 26.1 °F 23.0 °F 66% 29.93 in 10.0 mi ENE 8.1 mph - N/A   Overcast
3:51 AM 32.0 °F 24.8 °F 23.0 °F 69% 29.94 in 10.0 mi ENE 8.1 mph - N/A   Overcast
4:51 AM 32.0 °F 24.8 °F 23.0 °F 69% 29.93 in 10.0 mi ENE 8.1 mph - N/A   Overcast
5:51 AM 32.0 °F 24.2 °F 21.9 °F 66% 29.89 in 10.0 mi ENE 9.2 mph - N/A   Overcast
6:51 AM 32.0 °F 24.8 °F 21.9 °F 66% 29.88 in 10.0 mi ENE 8.1 mph - N/A   Overcast
7:51 AM 32.0 °F 23.6 °F 21.0 °F 64% 29.84 in 10.0 mi ENE 10.4 mph - N/A   Overcast
8:51 AM 33.8 °F 23.9 °F 21.2 °F 60% 29.78 in 10.0 mi ENE 15.0 mph 23.0 mph N/A   Overcast
9:51 AM 34.0 °F 23.8 °F 19.9 °F 56% 29.77 in 10.0 mi ENE 16.1 mph - N/A   Overcast
10:51 AM 36.0 °F 28.0 °F 19.0 °F 50% 29.76 in 10.0 mi ENE 11.5 mph - N/A   Overcast
11:51 AM 37.0 °F 30.4 °F 19.0 °F 48% 29.75 in 10.0 mi ENE 9.2 mph - N/A   Overcast
12:51 PM 37.0 °F 31.0 °F 19.9 °F 50% 29.73 in 10.0 mi NE 8.1 mph - N/A   Overcast
1:51 PM 37.0 °F 28.5 °F 19.9 °F 50% 29.70 in 10.0 mi ENE 13.8 mph 20.7 mph N/A   Overcast
2:28 PM 37.4 °F 27.8 °F 21.2 °F 52% 29.63 in 9.0 mi East 17.3 mph 21.9 mph 0.00 in Snow Light Snow
2:41 PM 35.6 °F 25.9 °F 24.8 °F 65% 29.64 in 2.0 mi East 16.1 mph 28.8 mph 0.00 in Snow Light Snow
2:51 PM 36.0 °F 26.3 °F 25.0 °F 64% 29.65 in 2.0 mi East 16.1 mph 24.2 mph 0.01 in Snow Light Snow
3:12 PM 35.6 °F 26.6 °F 26.6 °F 70% 29.62 in 2.0 mi ENE 13.8 mph - 0.00 in Snow Light Snow
3:36 PM 35.6 °F 25.9 °F 28.4 °F 75% 29.59 in 4.0 mi ENE 16.1 mph 21.9 mph 0.00 in Snow Light Snow
3:51 PM 35.1 °F 27.9 °F 28.0 °F 76% 29.61 in 9.0 mi ENE 9.2 mph 21.9 mph 0.01 in Snow Light Snow
4:51 PM 37.0 °F 27.7 °F 25.0 °F 62% 29.56 in 10.0 mi East 16.1 mph 25.3 mph 0.00 in   Overcast
5:51 PM 35.6 °F 27.5 °F 26.6 °F 70% 29.55 in 10.0 mi East 11.5 mph 20.7 mph N/A   Overcast
6:51 PM 36.0 °F 27.1 °F 27.0 °F 70% 29.54 in 10.0 mi ENE 13.8 mph - N/A   Overcast
7:40 PM 35.6 °F 30.7 °F 28.4 °F 75% 29.51 in 9.0 mi ENE 5.8 mph - 0.00 in Snow Light Snow
7:51 PM 36.0 °F 29.0 °F 28.0 °F 73% 29.52 in 10.0 mi ENE 9.2 mph - 0.00 in   Overcast
8:51 PM 36.0 °F 29.0 °F 28.0 °F 73% 29.47 in 10.0 mi ENE 9.2 mph 19.6 mph N/A   Overcast
9:51 PM 37.0 °F 32.4 °F 27.0 °F 67% 29.49 in 7.0 mi East 5.8 mph - 0.00 in Snow Light Snow
10:27 PM 35.6 °F 29.2 °F 30.2 °F 81% 29.44 in 3.0 mi NE 8.1 mph - 0.02 in Rain , Snow Light Snow
10:47 PM 33.8 °F - 30.2 °F 87% 29.45 in 2.0 mi Calm Calm - 0.03 in Rain , Snow Light Snow
10:51 PM 34.0 °F - 30.9 °F 89% 29.47 in 2.0 mi Calm Calm - 0.03 in Rain , Snow Light Snow
11:01 PM 33.8 °F - 32.0 °F 93% 29.46 in 1.5 mi Calm Calm - 0.01 in Rain , Snow Light Snow
11:06 PM 33.8 °F - 32.0 °F 93% 29.45 in 1.0 mi Calm Calm - 0.01 in Snow Light Snow
11:23 PM 33.8 °F 29.6 °F 32.0 °F 93% 29.44 in 0.8 mi North 4.6 mph - 0.04 in Snow Light Snow
11:31 PM 33.8 °F 28.6 °F 32.0 °F 93% 29.43 in 0.5 mi NNE 5.8 mph - 0.06 in Fog , Snow Snow
11:39 PM 33.8 °F 27.7 °F 32.0 °F 93% 29.43 in 0.5 mi NE 6.9 mph - 0.10 in Fog , Snow Snow
11:46 PM 33.8 °F 27.7 °F 32.0 °F 93% 29.43 in 0.2 mi NNE 6.9 mph - 0.12 in Fog , Snow Heavy Snow
11:51 PM 33.1 °F 26.9 °F 32.0 °F 96% 29.44 in 0.5 mi NNE 6.9 mph - 0.15 in Fog , Snow Snow